Вернуться в каталог

STARLINK-38160

АктивенСвязьSSO
NORAD 100121·PAYLOAD·🇺🇸 United States

Запущен Jul 21, 2026 с Vandenberg Space Force Base

Loading…

Ближайшие Пролёты (ближайшие 24 часа)

TLE

СвежийSource: Space-Track

Эпоха: Sep 14, 2026, 07:45 UTC

1 A0121U 26166W   26257.32302983  .00138367  00000-0  91320-3 0  9993
2 A0121  97.2836 275.4079 0001831  85.7917 274.3557 15.75199258  8637

Отслеживайте STARLINK-38160 в реальном времени с AllMySat

Download on the App Store